Location: Cheching
(60.0667°N, 164.2167°W)
Time: 21:57:30
(UTC+00:00)

NOAA 15 - Pass Details

Date: 01 February 2021
Orbit: 798 x 812 km, 98.7° (Epoch: 07 March)

Event Time Altitude Azimuth Distance (km) Brightness Sun altitude
Rises 06:04:15 0° 184° (S) 3,310 7.8 -21.4°
Reaches altitude 10° 06:06:42 10° 191° (SSW) 2,386 7.1 -21.7°
Maximum altitude 06:11:42 42° 262° (W) 1,142 5.8 -22.3°
Drops below altitude 10° 06:16:45 10° 334° (NNW) 2,410 7.5 -22.9°
Sets 06:19:14 0° 341° (NNW) 3,347 8.1 -23.2°
